Terminal Aerodrome Forecast
Issued by NWS

Home | Current Version | Previous Version | Text Only | Print | Product List | Glossary On
Versions: 1 2 3 4 5 6 7 8 9 10 11 12 13 14 15 16 17 18
000
FTUS43 KOAX 221515 AAB
TAFBFF
TAF AMD
KBFF 221515Z 2215/2312 12014KT 4SM -RA BR OVC025
      TEMPO 2215/2217 5SM -RA BR BKN006 OVC012
     FM221900 11013KT 4SM -RA BR OVC015
     FM230100 10012KT 2SM -RA BR OVC008=

USA.gov is the U.S. government's official web portal to all federal, state and local government web resources and services.